Diretta Meteo Verona-Villafranca, Italiasabato 20 luglio ore 15:20

Mappa
Sereno 32 °C Poco Nuvoloso 24 Ore: T.min 19 T.max 32
Ponente Sud-Ovest Km/h 13 Punto di rugiada: 17 °C Umidità: 40% Visibilità: 10 Km
Il sole sorge alle: 05:46 Il sole tramonta alle: 20:59
20 Luglio 2019 15:20 tempo osservato: Poco Nuvoloso Poco Nuvoloso 32 40 1017 vento: Nord SO 13
20 Luglio 2019 14:50 tempo osservato: Poco Nuvoloso Poco Nuvoloso 32 43 1017 vento: Nord S 7.4
20 Luglio 2019 14:20 tempo osservato: Sereno Sereno 32 43 1017 vento: Nord O/SO 7.4
20 Luglio 2019 13:50 tempo osservato: Sereno Sereno 31 45 1018 vento: Nord N 7.4
20 Luglio 2019 13:20 tempo osservato: Sereno Sereno 31 45 1018 vento: Nord N 9.3
20 Luglio 2019 12:50 tempo osservato: Sereno Sereno 30 48 1018 vento: Nord E/SE 7.4
20 Luglio 2019 12:20 tempo osservato: Sereno Sereno 29 48 1018 vento: Nord SE 11.1
20 Luglio 2019 11:50 tempo osservato: Sereno Sereno 28 51 1018 vento: Nord E 7.4
20 Luglio 2019 11:20 tempo osservato: Sereno Sereno 28 48 1018 vento: Nord N 5.5
20 Luglio 2019 10:50 tempo osservato: Sereno Sereno 28 51 1018 vento: Nord E 7.4
20 Luglio 2019 10:20 tempo osservato: Sereno Sereno 27 57 1018 vento: Nord N 5.5
20 Luglio 2019 09:50 tempo osservato: Sereno Sereno 26 61 1018 vento: Nord N 3.7
20 Luglio 2019 09:20 tempo osservato: Sereno Sereno 26 61 1018 vento: Nord N 3.7
20 Luglio 2019 08:50 tempo osservato: Sereno Sereno 24 69 1018 vento: Nord N 5.5
20 Luglio 2019 08:20 tempo osservato: Sereno Sereno 23 68 1017 vento: Nord N 5.5
20 Luglio 2019 07:50 tempo osservato: Sereno Sereno 23 73 1017 vento: Nord N 3.7
20 Luglio 2019 07:20 tempo osservato: Sereno Sereno 21 77 1017 vento: Nord N 5.5
20 Luglio 2019 06:50 tempo osservato: Sereno Sereno 21 77 1017 vento: Nord N 1.8
20 Luglio 2019 06:20 tempo osservato: Sereno Sereno 20 77 1016 vento: Nord N 1.8
20 Luglio 2019 05:50 tempo osservato: Sereno Sereno 20 77 1016 vento: Nord N 5.5
20 Luglio 2019 05:20 tempo osservato: Sereno Sereno 19 82 1016 vento: Nord N 3.7
20 Luglio 2019 04:50 tempo osservato: Sereno Sereno 20 82 1016 vento: Nord N 5.5
20 Luglio 2019 04:20 tempo osservato: Sereno Sereno 21 77 1016 vento: Nord N/NO 7.4
20 Luglio 2019 03:50 tempo osservato: Sereno Sereno 20 82 1016 vento: Nord N 5.5
20 Luglio 2019 03:20 tempo osservato: Sereno Sereno 21 77 1016 vento: Nord N 7.4
20 Luglio 2019 02:50 tempo osservato: Sereno Sereno 21 77 1016 vento: Nord N/NO 7.4
20 Luglio 2019 02:20 tempo osservato: Sereno Sereno 21 77 1016 vento: Nord N 5.5
20 Luglio 2019 01:50 tempo osservato: Sereno Sereno 21 77 1017 vento: Nord N 3.7
20 Luglio 2019 01:20 tempo osservato: Sereno Sereno 23 68 1016 vento: Nord N 5.5
20 Luglio 2019 00:50 tempo osservato: Sereno Sereno 23 68 1017 vento: Nord N 5.5
20 Luglio 2019 00:20 tempo osservato: Sereno Sereno 23 68 1016 vento: Nord N 5.5
19 Luglio 2019 23:50 tempo osservato: Sereno Sereno 23 68 1016 vento: Nord N 3.7
19 Luglio 2019 23:20 tempo osservato: Sereno Sereno 23 68 1016 vento: Nord N 7.4
19 Luglio 2019 22:50 tempo osservato: Sereno Sereno 23 68 1016 vento: Nord N 3.7
19 Luglio 2019 22:20 tempo osservato: Sereno Sereno 24 69 1015 vento: Nord N 1.8
19 Luglio 2019 21:50 tempo osservato: Sereno Sereno 26 57 1015 vento: Nord N 1.8
19 Luglio 2019 21:20 tempo osservato: Sereno Sereno 27 54 1015 vento: Nord N 3.7
19 Luglio 2019 20:50 tempo osservato: Sereno Sereno 28 51 1014 vento: Nord N 5.5
19 Luglio 2019 20:20 tempo osservato: Sereno Sereno 29 48 1014 vento: Nord N 5.5
19 Luglio 2019 19:50 tempo osservato: Sereno Sereno 30 45 1014 vento: Nord N 5.5
19 Luglio 2019 19:20 tempo osservato: Sereno Sereno 30 42 1014 vento: Nord S/SO 9.3
19 Luglio 2019 18:50 tempo osservato: Sereno Sereno 31 37 1014 vento: Nord N 5.5
19 Luglio 2019 18:20 tempo osservato: Poco Nuvoloso Poco Nuvoloso 31 37 1014 vento: Nord N 5.5
19 Luglio 2019 17:50 tempo osservato: Poco Nuvoloso Poco Nuvoloso 31 37 1014 vento: Nord SO 9.3
19 Luglio 2019 17:20 tempo osservato: Poco Nuvoloso Poco Nuvoloso 31 37 1014 vento: Nord N 7.4
19 Luglio 2019 16:50 tempo osservato: Poco Nuvoloso Poco Nuvoloso 31 40 1014 vento: Nord S 7.4